Время (UTC), дата Ветер
(°,м/с) 
Видим.   Явления Облачность Т
(°С)
Тd
(°С)
f(%) Тe
(°С)
Pmin
(гПа)
dP
(гПа)
Po
(мм)
O2
(г/м3)
Тmin Tmax R s Состояние
почвы
00 01.09.17 тихо ()   10 км    ясно 
+11.7 +10.1 90 +13  1021.6  0.4  755  290           
03 01.09.17 тихо ()   10 км    ясно 
+11.9 +10.4 91 +13  1021.7  0.1  755  290  +10.5        влажная 
06 01.09.17 120 (ЮВ) 10 км    ясно 
+18.9 +10.7 59 +22  1021.7  0.3  756  283           
09 01.09.17 230 (ЮЗ) 10 км    3/0 верхняя 
[Ci fib]
+21.7 +10.6 49 +24  1020.5  -1  755  280           
12 01.09.17 100 (В) 10 км    3/0 верхняя 
[Ci sp]
+23.8 +9.5 40 +24  1018.6  -1.8  754  278           
15 01.09.17 090 (В) 10 км    1/0 верхняя 
[Ci fib]
+20.6 +9.5 49 +21  1017.8  -0.9  753  280    +23.9       
18 01.09.17 090 (В) 10 км    ясно 
+17 +9.2 60 +18  1017.6  -0.3  753  284           
21 01.09.17 090 (В) 10 км    ясно 
+15.9 +9.8 67 +18  1017  -0.7  752  285           
00 02.09.17 100 (В) 10 км    ясно 
+13.9 +9.9 77 +16  1016.2  -0.8  752  286           
03 02.09.17 090 (В) 10 км    ясно 
+13.7 +10.1 79 +15  1015.2  -1  751  286  +13.2        сухая 
06 02.09.17 090 (В) 10 км    ясно 
+19.1 +12.2 64 +24  1014.2  -0.8  750  280           
09 02.09.17 090 (В) 10 км    4/0 верхняя 
[Cs]
+24.2 +12.7 49 +29  1012.5  -1.4  749  275           
12 02.09.17 100 (В) 10 км    4/0 верхняя 
[Ci fib]
+25.2 +10.7 40 +27  1011.1  -1.3  748  274           
15 02.09.17 090 (В) 10 км    6/0 средняя, верхняя 
[Ac As|Ci]
+23.3 +12 49 +27  1010.5  -0.8  748  275    +25.5       
18 02.09.17 070 (В) 10 км    8/0 средняя, верхняя 
[Ac lent|Ci fib]
+20.5 +11.6 57 +24  1009.6  -1  747  278           
21 02.09.17 070 (В) 10 км    10/0 средняя 
[Ac und]
+20.1 +11.8 59 +24  1008.9  -0.7  746  278           
00 03.09.17 080 (В) 10 км    6/0 средняя 
[Ac lent]
+19.1 +10.9 59 +22  1008  -0.9  746  279           
03 03.09.17 080 (В) 10 км    1/0 средняя 
[Ac cast]
+17.5 +11 66 +21  1008  0.1  746  280  +17.5        сухая 
06 03.09.17 070 (В) 10 км    3/0 средняя 
[Ac cast]
+20.9 +13.3 62 +27  1006.7  -1  745  276           
09 03.09.17 070 (В) 10 км    9/8 600 м средняя 
[Sc diur, vesp|Ac cast]
+22.9 +13.8 56 +30  1006.4  -0.2  745  274           
12 03.09.17 060 (СВ) 3{10}  10 км  гроза, ливневой дождь  10/8 600 м кучево-дожд., средняя 
[Cb calv|Ac cuf]
+18.5 +15.5 83 +29  1006.6  745  278           
15 03.09.17 360 (С) 5-11{11}  10 км  {гроза, ливн. осадки}  10/8 300 м кучево-дожд., средняя 
[Cb calv|Ac cast]
+19.1 +13.8 71 +26  1006.4  -0.2  744  278    +23.3     
18 03.09.17 360 (С) 3{11}  10 км  в посл. час гроза{ливн. осадки}  8/8 300 м кучево-дожд. 
[Cb calv]
+14.2 +12.2 88 +18  1008.9  2.2  746  283           
21 03.09.17 040 (СВ) 2{11}  10 км    10/8 300 м кучево-дожд., средняя 
[Cb cap|As op]
+13 +9.6 80 +14  1009.3  0.3  746  285           
00 04.09.17 010 (С) 10 км    10/8 300 м кучево-дожд., средняя 
[Cb cap|As op]
+12 +8.3 78 +12  1010.3  0.9  747  287           
03 04.09.17 360 (С) 10 км    10/10 300 м 
[Sc]
+10.1 +7.4 83 +10  1011.6  1.2  748  289  +9.9    11    влажная 
06 04.09.17 350 (С) 10 км    10/8 300 м средняя 
[Sc|As op]
+10.3 +6.7 78 +10  1012.5  0.9  749  290  +9.7         
09 04.09.17 360 (С) 10 км    10/10 300 м 
[Sc]
+9.4 +6 79 +9  1014.2  1.6  750  291           
12 04.09.17 350 (С) 10 км  в посл. час морось  10/10 200 м 
[St]
+10 +8 87 +10  1015.4  1.3  751  290           
15 04.09.17 360 (С) 10 км  {морось}  10/10 200 м 
[Frnb]
+11.4 +8.4 82 +12  1015.8  0.4  751  289    +11.4       
18 04.09.17 020 (С) 10 км    10/4 300 м средняя 
[Sc|Ac und]
+10.6 +7.4 81 +11  1016.7  0.8  752  290           
21 04.09.17 030 (СВ) 10 км    10/4 300 м средняя 
[Sc|As op]
+10 +7 82 +10  1016.9  -0.1  752  291           
00 05.09.17 360 (С) 10 км    10/6 300 м средняя 
[Sc|As op]
+9.6 +7.1 84 +10  1017.4  0.5  752  292           
03 05.09.17 030 (СВ) 10 км    10/6 300 м средняя 
[Sc|As op]
+9.3 +6.9 85 +9  1018  0.6  753  292  +9.2        влажная 
06 05.09.17 020 (С) 10 км  слаб. морось  10/10 300 м 
[St]
+9.5 +6.6 82 +9  1018.5  0.5  753  292  +9.2         
09 05.09.17 350 (С) 10 км  {морось}  10/10 600 м 
[Sc]
+10.3 +6 75 +10  1019.3  0.8  754  292           
12 05.09.17 020 (С) 10 км  {морось}  10/10 600 м 
[Sc]
+11.1 +7.1 76 +12  1019.8  0.5  754  291           
15 05.09.17 060 (СВ) 10 км  слаб. морось  10/10 300 м 
[St]
+10.4 +7.8 84 +11  1019.9  0.1  754  291    +11.1       
18 05.09.17 080 (В) 10 км  {морось}  10/10 300 м 
[Sc]
+10.2 +8 86 +10  1020.1  0.2  754  292           
21 05.09.17 090 (В) 10 км    10/10 300 м 
[Sc]
+10.2 +7.9 86 +10  1020  0.1  754  292           
00 06.09.17 070 (В) 10 км    10/10 300 м 
[Sc]
+10 +8 87 +10  1019.5  -0.6  754  292           
03 06.09.17 090 (В) 10 км    10/10 300 м 
[Sc]
+10.1 +8.1 87 +10  1019.6  0.1  754  292  +9.7        влажная 
06 06.09.17 090 (В) 10 км    10/10 300 м 
[Sc]
+11 +8.4 84 +11  1020.1  0.6  754  291           
09 06.09.17 100 (В) 10 км    10/10 300 м 
[Sc]
+11.8 +8.5 80 +12  1019.3  -0.8  754  290           
12 06.09.17 110 (В) 10 км    10/10 600 м 
[Sc]
+12.3 +8.4 77 +13  1019  -0.2  754  289           
15 06.09.17 110 (В) 10 км    10/10 300 м 
[Sc]
+12 +8.3 78 +12  1017.8  -1.2  753  289    +12.8       
18 06.09.17 100 (В) 10 км    10/10 600 м 
[Sc]
+11.2 +8.4 83 +11  1017.9  0.1  753  290           
21 06.09.17 090 (В) 10 км    10/10 600 м 
[Sc]
+10.6 +8.3 86 +11  1016.9  -1  752  290           
00 07.09.17 090 (В) 10 км    9/9 600 м 
[Sc]
+10.4 +8.5 88 +12  1016.3  -0.6  751  290           
03 07.09.17 090 (В) 10 км    10/10 300 м 
[St]
+10.8 +9 89 +11  1015.4  -0.8  751  289  +10.4        влажная 
06 07.09.17 110 (В) 10 км    10/10 300 м 
[Sc]
+13.2 +10.2 82 +15  1014.7  -0.6  750  287           
09 07.09.17 130 (ЮВ) 10 км    10/10 600 м 
[Sc]
+15.9 +11.1 73 +20  1013.6  -1  750  283           
12 07.09.17 100 (В) 10 км    10/3 600 м средняя 
[Sc|As op]
+19.5 +13 66 +25  1011.8  -1.6  748  279           
15 07.09.17 100 (В) 10 км    9/0 средняя, верхняя 
[As op|Ci fib]
+18.6 +13.3 71 +25  1010.8  -1  748  279    +20.2       
18 07.09.17 100 (В) 10 км    10/6 600 м средняя 
[Sc|As op]
+16 +11.6 75 +19  1010  -0.9  747  282           
21 07.09.17 100 (В) 10 км    10/8 600 м средняя 
[Sc|As op]
+15.5 +11.8 79 +20  1008.1  -1.9  746  282           
00 08.09.17 130 (ЮВ) 10 км    9/5 600 м средняя 
[Sc|Ac trans]
+15.5 +11.8 79 +20  1006.5  -1.5  744  282           
03 08.09.17 100 (В) 10 км  слаб. дождь  10/10 600 м 
[Ns]
+15 +11.9 82 +20  1005.6  -1  744  282  +14.9        влажная 
06 08.09.17 100 (В) 10 км  слаб. дождь  10/10 600 м 
[Ns]
+15 +13.1 88 +22  1004.9  -0.7  743  281  +14.8         
09 08.09.17 150 (ЮВ) 10 км  слаб. ливневой дождь  10/10 100 м кучево-дожд. 
[Cb cap]
+14.4 +13.1 92 +22  1003.6  -1.3  742  281           
12 08.09.17 260 (З) 10 км  слаб. дождь{ливн. осадки}  10/10 300 м 
[Ns]
+14.2 +13.1 93 +20  1002.7  -0.9  742  281           
15 08.09.17 280 (З) 10 км  {дождь}  9/8 200 м кучево-дожд., средняя 
[Cb cap|Ac cast]
+13.8 +12.6 92 +19  1002.9  0.1  742  282    +15  12     
18 08.09.17 250 (З) 10 км  слаб. дождь  10/10 300 м 
[Ns]
+12.6 +11.2 91 +16  1003  0.1  742  284           
21 08.09.17 250 (З) 10 км    9/6 300 м средняя 
[Sc|As trans]
+12.5 +10.7 89 +15  1002.8  -0.2  742  284           
00 09.09.17 270 (З) 10 км    9/5 300 м средняя 
[Sc|As op]
+12.4 +10.4 88 +14  1002.6  -0.2  741  284           
03 09.09.17 270 (З) 10 км    10/8 300 м средняя 
[Sc|As trans]
+12.5 +10.3 86 +14  1002.8  0.2  742  284  +12.3      влажная 
06 09.09.17 270 (З) 10 км    10/10 300 м 
[St]
+13 +10.3 84 +15  1003.1  0.3  742  283           
09 09.09.17 280 (З) 4{10}  10 км  слаб. дождь  10/10 300 м 
[Sc]
+13.6 +10.2 80 +15  1003.7  0.6  742  283           
12 09.09.17 280 (З) 5-10{12}  10 км  {ливн. осадки, дождь}  9/9 300 м кучево-дожд. 
[Cb cap]
+14.6 +10.7 77 +16  1004.1  0.5  743  282           
15 09.09.17 280 (З) 4{11}  10 км  {ливн. осадки}  9/9 600 м 
[Sc]
+13.8 +10.8 82 +15  1005.1  0.9  743  283    +15.5  0.5     
18 09.09.17 300 (СЗ) 10 км  слаб. дождь  10/10 300 м 
[Frnb|Ns]
+12.9 +10.3 84 +14  1005.7  0.6  744  284           
21 09.09.17 300 (СЗ) 3{11}  10 км  {дождь}  10/8 300 м средняя 
[Sc|As op]
+11.7 +8.1 79 +11  1006.7  0.9  744  286           
00 10.09.17 310 (СЗ) 10 км  {дождь}  8/5 300 м средняя 
[Sc|Ac trans]
+10.1 +6.5 78 +10  1008.4  1.7  746  289           
03 10.09.17 310 (СЗ) 10 км    10/10 300 м кучево-дожд. 
[Cb cap]
+9.2 +5.5 78 +9  1010.3  1.8  747  290  +9.2        влажная 
06 10.09.17 310 (СЗ) 10 км    10/10 600 м 
[Sc]
+9.6 +5.8 77 +9  1012  1.7  748  290  +9.1         
09 10.09.17 310 (СЗ) 10 км    10/10 600 м 
[Sc]
+10.2 +4.7 69 +10  1013.8  1.8  750  290           
12 10.09.17 320 (СЗ) 10 км    10/10 600 м 
[Sc]
+11.6 +4.6 62 +11  1015.1  1.8  751  289           
15 10.09.17 310 (СЗ) 10 км    9/9 600 м 
[Sc]
+11 +5.4 68 +11  1016.6  1.4  752  290    +12       
18 10.09.17 350 (С) 10 км    10/10 600 м 
[Sc]
+9.3 +3.9 69 +9  1018.2  1.5  753  293           
21 10.09.17 340 (С) 10 км    9/9 600 м 
[Sc]
+7.7 +3.2 73 +9  1019  0.7  753  295           
00 11.09.17 360 (С) 10 км    ясно 
+4.9 +1.9 81 +6  1020.5  1.4  754  298           
03 11.09.17 320 (СЗ) 10 км    9/0 средняя 
[Ac lent]
+5.2 +2.7 84 +6  1021.9  1.3  755  298  +4.4        влажная 
06 11.09.17 тихо ()   10 км    10/0 средняя 
[Ac As]
+7.3 +2.6 72 +7  1022.5  0.7  756  296           
09 11.09.17 230 (ЮЗ) 10 км    10/3 600 м средняя 
[Sc|Ac lent]
+9.4 +2.9 64 +10  1022.6  0.2  756  294           
12 11.09.17 160 (Ю) 10 км  {дождь}  10/10 600 м 
[Ns]
+8.9 +4.2 72 +10  1021.9  -0.7  755  294           
15 11.09.17 110 (В) 10 км  слаб. дождь  10/10 300 м 
[Ns]
+7.6 +5.9 89 +9  1020.1  -1.8  754  295    +9.5     
18 11.09.17 140 (ЮВ) 10 км  слаб. ливневой дождь  10/10 300 м кучево-дожд. 
[Cb cap]
+7.9 +6.8 93 +7  1018  -2  753  294           
21 11.09.17 160 (Ю) 10 км  в посл. час ливневой дождь  10/10 200 м кучево-дожд. 
[Cb cap]
+8.9 +8.1 95 +9  1015.6  -2.4  751  292           
00 12.09.17 110 (В) 10 км  {ливн. осадки, дождь}  8/6 600 м средняя 
[Sc diur, vesp|Ac lent]
+10.9 +10.2 95 +13  1013.5  -1.9  749  288           
03 12.09.17 250 (З) 10 км  {ливн. осадки}  10/8 600 м кучево-дожд., средняя 
[Cb cap|Ac und]
+14.3 +13.1 92 +21  1012.2  -1.1  749  284  +7.6    12    мокрая 
06 12.09.17 270 (З) 10 км  {ливн. осадки}  10/10 600 м кучево-дожд. 
[Cb cap]
+15.9 +13.5 86 +22  1012.4  0.3  749  282           
09 12.09.17 280 (З) 3{10}  10 км    9/9 300 м кучево-дожд. 
[Cb cap]
+18.4 +14.5 78 +27  1013  0.7  749  280           
12 12.09.17 280 (З) 10 км    9/8 300 м кучево-дожд., средняя 
[Cb cap|Ac cast]
+20.1 +14.6 71 +28  1014  1.1  750  279           
15 12.09.17 250 (З) 10 км    10/8 300 м кучево-дожд., верхняя 
[Cb cap|Cc]
+19.1 +15.1 78 +30  1015  0.9  751  280    +21.3  0.8     
18 12.09.17 тихо ()   10 км  слаб. дождь  10/10 300 м 
[Ns]
+16.9 +15.5 91 +26  1015.8  0.6  751  282           
21 12.09.17 130 (ЮВ) 10 км  {ливн. осадки, дождь}  10/10 300 м 
[Sc]
+16.6 +15.8 95 +28  1015.9  0.1  751  282           
00 13.09.17 120 (ЮВ) 2000 м  дымка{ливн. осадки, дождь}  10/0 верхняя 
[Cs]
+15.9 +15.8 99 +27  1016.1  0.2  752  283           
03 13.09.17 140 (ЮВ) 0500 м  туман  ясно 
+14.3 +14.3 100 +23  1016.4  0.2  752  285  +14.3      влажная 
06 13.09.17 140 (ЮВ) 10 км  {туман}  ясно 
+18.2 +16.4 89 +30  1015.9  -0.3  751  280  +14.1         
09 13.09.17 160 (Ю) 10 км    3/3 600 м 
[Sc]
+22.5 +14.1 59 +30  1014.7  -1  751  277           
12 13.09.17 170 (Ю) 10 км    3/3 600 м 
[Sc]
+24.5 +14.9 55 +33  1013.5  -1.1  750  274           
15 13.09.17 120 (ЮВ) 10 км    8/0 верхняя 
[Ci fib]
+21 +13.9 64 +28  1012.4  -1.2  749  277    +25.5       
18 13.09.17 120 (ЮВ) 10 км    ясно 
+17.6 +11.4 67 +22  1011.5  -1.1  748  281           
21 13.09.17 130 (ЮВ) 10 км    6/0 средняя 
[Ac cast]
+16.4 +10.4 68 +19  1010.1  -1.4  747  282           
00 14.09.17 140 (ЮВ) 10 км    8/0 средняя 
[Ac cast]
+15.9 +10 68 +18  1008.3  -1.4  746  282           
03 14.09.17 130 (ЮВ) 10 км    8/0 средняя, верхняя 
[Ac lent|Ci fib]
+15.2 +8.4 64 +16  1006.6  -1.7  744  283  +15.2        влажная 
06 14.09.17 140 (ЮВ) 10 км    8/3 600 м средняя 
[Sc diur, vesp|Ac As]
+18 +9.5 58 +20  1006  -0.5  744  280  +15.2         
09 14.09.17 250 (З) 10 км    8/6 600 м кучево-дожд., средняя 
[Cb cap|Ac cast]
+21.2 +10.5 50 +23  1005.5  -0.3  744  276           
12 14.09.17 250 (З) 10 км    9/8 1000 м средняя 
[Sc diur, vesp|Ac cast]
+19.6 +15.1 75 +30  1005.5  0.1  744  276           
15 14.09.17 240 (ЮЗ) 10 км    8/8 600 м кучево-дожд., средняя 
[Cb cap|Ac lent]
+18.3 +14.5 79 +27  1005.2  -0.4  743  278    +22.1     
18 14.09.17 240 (ЮЗ) 10 км    ясно 
+17.3 +14.5 84 +26  1007.4  2.2  745  279           
21 14.09.17 240 (ЮЗ) 10 км    5/0 средняя 
[Ac lent]
+15.8 +12.2 79 +20  1008.9  1.4  746  282           
00 15.09.17 250 (З) 10 км    10/0 верхняя 
[Cs]
+14.5 +10.9 79 +17  1009.9  0.9  747  284           
03 15.09.17 150 (ЮВ) 10 км    9/0 верхняя 
[Ci fib]
+12.9 +10.3 84 +16  1011.8  1.8  748  286  +12.9        влажная 
06 15.09.17 240 (ЮЗ) 10 км    5/0 верхняя 
[Ci fib]
+16.9 +11.5 70 +20  1012.7  1.1  749  282  +12.9         
09 15.09.17 240 (ЮЗ) 10 км    1/0 верхняя 
[Ci sp]
+21.5 +12.1 55 +26  1012.8  0.2  749  278           
12 15.09.17 240 (ЮЗ) 10 км    ясно 
+23.9 +11.7 46 +27  1011.7  -1  749  275           
15 15.09.17 200 (Ю) 10 км    1/0 верхняя 
[Ci sp]
+21.1 +12.4 58 +26  1010.5  -1.3  748  277    +24.2       
18 15.09.17 150 (ЮВ) 10 км    1/0 верхняя 
[Ci fib]
+17.6 +12.7 73 +24  1010  -0.6  747  280           
21 15.09.17 150 (ЮВ) 10 км    ясно 
+16.7 +11.8 73 +22  1009  -1  746  281           
00 16.09.17 240 (ЮЗ) 10 км    4/0 средняя, верхняя 
[Ac lent|Ci]
+17.7 +10.9 64 +20  1009.4  0.4  747  281           
03 16.09.17 270 (З) 10 км    3/0 средняя 
[Ac lent]
+14.2 +8.5 69 +14  1012  2.4  748  285  +14.2        влажная 
06 16.09.17 280 (З) 10 км    3/3 600 м верхняя 
[Sc|Ci fib]
+15.7 +9 64 +16  1013.9  1.9  750  284  +14         
09 16.09.17 260 (З) 10 км    8/4 600 м верхняя 
[Sc diur, vesp|Ci fib]
+18.1 +8.1 52 +18  1015.3  1.5  751  282           
12 16.09.17 290 (З) 10 км    8/8 300 м 
[Sc diur, vesp]
+18 +8.4 53 +18  1016.5  1.2  752  283           
15 16.09.17 250 (З) 10 км    8/8 300 м 
[Sc diur, vesp]
+16.6 +8.5 59 +18  1016.9  0.3  752  284    +18.9       
18 16.09.17 230 (ЮЗ) 10 км    9/0 средняя 
[Ac trans]
+15.4 +9.8 69 +17  1017.8  0.8  753  285           
21 16.09.17 250 (З) 10 км    3/0 средняя 
[Ac trans]
+13.3 +8.4 72 +15  1018.9  753  288           
00 17.09.17 250 (З) 10 км    8/0 верхняя 
[Ci sp]
+12.1 +8.8 80 +13  1019.8  0.8  754  289           
03 17.09.17 240 (ЮЗ) 10 км    3/0 верхняя 
[Ci sp]
+11 +8.6 85 +11  1020.7  0.9  755  291  +10.7        влажная 
06 17.09.17 250 (З) 10 км    3/0 верхняя 
[Ci fib]
+14.3 +9.4 72 +15  1021.5  755  288           
09 17.09.17 290 (З) 10 км    3/3 1000 м 
[Cu hum]
+18 +8.2 53 +18  1021.3  -0.1  755  284           
12 17.09.17 280 (З) 10 км    8/1 1000 м верхняя 
[Cu hum|Cs]
+18 +7.1 49 +19  1020.7  -0.6  755  284           
15 17.09.17 250 (З) 10 км    10/0 верхняя 
[Cs]
+15.9 +7.9 59 +17  1020.5  -0.4  755  286    +18.5       
18 17.09.17 тихо ()   10 км    8/0 средняя 
[Ac cast]
+12.6 +9.1 79 +13  1020.6  0.1  755  289           
21 17.09.17 150 (ЮВ) 10 км    8/0 верхняя 
[Ci fib]
+12 +8.9 81 +13  1020.8  0.2  755  290           
00 18.09.17 тихо ()   10 км    8/0 средняя, верхняя 
[Ac cast|Ci fib]
+11.6 +9.2 85 +12  1021.1  0.3  755  290           
03 18.09.17 110 (В) 10 км    10/0 средняя, верхняя 
[Ac lent|Ci fib]
+11.1 +8.6 85 +12  1021  -0.1  755  291  +11.1        влажная 
06 18.09.17 150 (ЮВ) 10 км    10/0 кучево-дожд., средняя 
[Cb cap|Ac As]
+14.1 +10.3 78 +16  1020.8  0.1  755  287           
09 18.09.17 130 (ЮВ) 10 км  {ливн. осадки, дождь}  9/3 1000 м средняя 
[Sc diur, vesp|Ac trans]
+15.6 +10.7 73 +18  1019.7  -1  754  285           
12 18.09.17 130 (ЮВ) 10 км  {ливн. осадки, дождь}  10/3 1000 м средняя, верхняя 
[Sc diur, vesp|Ac As|Cs]
+18.3 +10.6 61 +21  1017.5  -2  753  282           
15 18.09.17 090 (В) 10 км    9/4 1000 м средняя, верхняя 
[Sc|Ac As|Ci fib]
+16.7 +11.9 73 +22  1016  -1.6  751  283    +18.8       
18 18.09.17 100 (В) 10 км    ясно 
+16.3 +10.2 67 +18  1014.2  -1.8  750  283           
21 18.09.17 130 (ЮВ) 10 км    ясно 
+14.7 +10.5 76 +17  1013  -1.3  749  284           
00 19.09.17 140 (ЮВ) 10 км    ясно 
+14.3 +10.2 76 +16  1012  -0.9  748  285           
03 19.09.17 140 (ЮВ) 10 км    3/0 верхняя 
[Ci fib]
+14.6 +10.2 75 +16  1011.2  -0.8  748  284  +14.1        влажная 
06 19.09.17 180 (Ю) 10 км    4/0 верхняя 
[Ci]
+20.9 +12.1 57 +25  1010.3  -0.6  747  277           
09 19.09.17 240 (ЮЗ) 10 км    6/0 верхняя 
[Ci]
+24.3 +10.6 42 +26  1009.9  -0.3  747  275           
12 19.09.17 250 (З) 3{11}  10 км    9/6 1000 м средняя, верхняя 
[Sc diur, vesp|Ac cast|Ci sp]
+22.6 +11.8 50 +26  1010.7  0.7  748  276           
15 19.09.17 240 (ЮЗ) 10 км    ясно 
+21 +10.2 50 +22  1011.6  0.8  748  278    +24.5       
18 19.09.17 270 (З) 10 км    ясно 
+17.7 +6.9 49 +18  1013.8  750  283           
21 19.09.17 260 (З) 10 км    ясно 
+13.9 +6.7 62 +14  1016.2  2.1  751  287           
00 20.09.17 190 (Ю) 10 км    3/0 верхняя 
[Ci fib]
+11.2 +6.6 73 +12  1017.5  1.2  752  290           
03 20.09.17 260 (З) 10 км    ясно 
+10.3 +6.9 79 +10  1018.9  1.4  753  291  +10        сухая 
06 20.09.17 280 (З) 10 км    10/0 верхняя 
[Ci]
+13.3 +7.6 68 +14  1020.5  1.7  755  289           
09 20.09.17 300 (СЗ) 10 км    3/1 600 м верхняя 
[Cu hum|Ci fib]
+15.9 +7.5 57 +16  1020.9  0.6  755  286           
12 20.09.17 280 (З) 10 км    4/0 верхняя 
[Ci fib]
+17.1 +6.8 51 +17  1021.2  0.3  755  285           
15 20.09.17 300 (СЗ) 10 км    9/6 300 м верхняя 
[Sc|Ci fib]
+14.9 +6.9 59 +16  1022.6  1.2  756  288    +17.3       
18 20.09.17 310 (СЗ) 10 км    1/0 верхняя 
[Ci sp]
+12.4 +6.5 67 +14  1023.9  1.2  757  291           
21 20.09.17 310 (СЗ) 10 км    3/0 верхняя 
[Ci sp]
+11.8 +6.7 71 +13  1024.5  0.5  758  291           
00 21.09.17 350 (С) 10 км    ясно 
+10 +6.8 80 +11  1025.3  0.7  758  294           
03 21.09.17 тихо ()   10 км    4/0 средняя, верхняя 
[Ac cast|Ci fib]
+9.4 +6.6 83 +9  1026.4  1.1  759  295  +8.7        влажная 
06 21.09.17 360 (С) 10 км    5/5 1000 м 
[Cu hum]
+12 +7.7 75 +12  1027.3  760  292           
09 21.09.17 320 (СЗ) 10 км    10/10 600 м 
[Sc]
+12 +7.2 72 +12  1027.7  0.4  760  292           
12 21.09.17 350 (С) 10 км    10/10 600 м 
[Sc]
+11.9 +6.9 71 +12  1028.5  0.8  761  293           
15 21.09.17 030 (СВ) 10 км    10/10 600 м 
[Sc]
+9.8 +4.2 68 +10  1029.8  1.2  761  296    +13.2       
18 21.09.17 010 (С) 10 км    9/9 600 м 
[Sc]
+7.8 +1.9 66 +8  1031.2  1.3  762  298           
21 21.09.17 340 (С) 10 км    9/9 300 м 
[Sc]
+6.1 +3.1 81 +6  1032.2  0.9  763  300           
00 22.09.17 360 (С) 10 км  в посл. час морось  10/10 200 м 
[St]
+6.5 +4.9 89 +7  1032.6  0.4  763  300           
03 22.09.17 020 (С) 10 км  в посл. час морось  10/10 200 м 
[Sc]
+7.6 +5.8 88 +8  1033.9  1.3  764  299  +5.8        влажная 
06 22.09.17 050 (СВ) 10 км  {морось}  9/9 600 м 
[Sc]
+9.1 +4.1 71 +9  1035  1.1  765  298           
09 22.09.17 050 (СВ) 10 км    6/6 1000 м 
[Sc diur, vesp]
+11.4 +3.3 57 +11  1035.3  0.4  766  296           
12 22.09.17 010 (С) 10 км    3/0 средняя 
[Ac lent]
+12.5 +3.1 53 +12  1035.6  0.3  766  295           
15 22.09.17 030 (СВ) 10 км    ясно 
+9.7 +3.7 66 +10  1036.1  0.4  766  298    +13.1       
18 22.09.17 080 (В) 10 км    ясно 
+5.7 +2.4 79 +5  1037.3  0.9  767  302           
21 22.09.17 080 (В) 10 км    ясно 
+5.1 +2 80 +5  1037.8  0.5  767  303           
00 23.09.17 080 (В) 10 км    ясно 
+4.4 +1.8 83 +5  1038.9  768  304           
03 23.09.17 тихо ()   10 км    1/0 средняя 
[Ac lent]
+3.2 +1.5 89 +3  1039.2  0.2  768  306  +2.9        влажная 
06 23.09.17 110 (В) 10 км    5/3 600 м средняя 
[Sc|Ac lent]
+6.7 +3.1 78 +8  1039  0.1  768  302           
09 23.09.17 360 (С) 10 км    5/5 600 м 
[Cu hum]
+11 +4 62 +12  1038.6  -0.2  768  297           
12 23.09.17 270 (З) 10 км    3/0 средняя 
[Ac cast]
+12.3 +4.2 58 +13  1036.4  -2.1  766  295           
15 23.09.17 260 (З) 10 км    8/0 средняя 
[Ac trans]
+10.9 +5.3 68 +12  1035.2  -1.3  765  296    +12.8       
18 23.09.17 320 (СЗ) 10 км    8/0 средняя 
[Ac lent]
+10.1 +5.4 73 +11  1034.8  -0.4  765  296           
21 23.09.17 030 (СВ) 10 км    8/0 средняя 
[Ac lent]
+7.8 +4.4 79 +9  1035.1  0.1  765  299           
00 24.09.17 330 (СЗ) 10 км    3/0 средняя 
[Ac lent]
+5.4 +3.4 87 +6  1035.6  0.4  766  302           
03 24.09.17 360 (С) 10 км    4/0 средняя 
[Ac lent]
+4.2 +2.5 89 +4  1036.2  0.5  766  304  +3.9        влажная 
06 24.09.17 020 (С) 10 км    4/4 300 м 
[Cu hum]
+8.5 +3.3 70 +9  1036.8  0.8  767  299           
09 24.09.17 360 (С) 10 км    9/9 300 м кучево-дожд. 
[Cb cap]
+9.5 +3.2 65 +10  1037.2  0.4  767  298           
12 24.09.17 010 (С) 10 км    9/9 300 м кучево-дожд. 
[Cb cap]
+9.9 +2.4 60 +10  1037.9  0.7  767  298           
15 24.09.17 330 (СЗ) 10 км    9/5 300 м средняя 
[Sc diur, vesp|Ac cast]
+8.1 +1.6 64 +8  1038.5  0.5  768  300    +10.4       
18 24.09.17 350 (С) 10 км    9/5 300 м средняя 
[Sc|Ac lent]
+7 +3.1 76 +8  1038.7  0.2  768  301           
21 24.09.17 тихо ()   10 км    3/0 средняя 
[Ac lent]
+5.4 +1.7 77 +5  1038.7  0.1  768  303           
00 25.09.17 330 (СЗ) 10 км    10/0 средняя 
[Ac As]
+5.6 +2.3 79 +6  1038.2  -0.4  767  303           
03 25.09.17 340 (С) 10 км    10/10 1000 м 
[Sc]
+5.8 +2.5 79 +7  1038  -0.3  767  302  +4.5        сухая 
06 25.09.17 310 (СЗ) 10 км    10/10 1000 м 
[Sc]
+7.3 +1.1 65 +8  1037  -0.9  767  301           
09 25.09.17 300 (СЗ) 10 км    10/10 600 м 
[Sc]
+7.9 +2 66 +8  1035.8  -1.1  766  300           
12 25.09.17 300 (СЗ) 10 км  в посл. час дождь  10/10 600 м 
[Sc]
+7.6 +3.6 76 +9  1034.8  -1  765  299           
15 25.09.17 310 (СЗ) 10 км    10/10 600 м 
[Sc]
+7.6 +4 78 +8  1034.3  -0.4  765  299    +7.9       
18 25.09.17 350 (С) 10 км  слаб. дождь  10/10 300 м 
[Sc]
+7.4 +5.2 86 +8  1034.1  -0.3  764  299           
21 25.09.17 360 (С) 10 км  {дождь}  10/5 200 м средняя 
[Frnb|Ac As]
+7.5 +5.8 89 +7  1034  0.1  764  299           
00 26.09.17 360 (С) 10 км  {дождь}  10/4 200 м средняя 
[Frnb|Ac As]
+7.1 +5.1 87 +8  1034.1  0.1  764  299           
03 26.09.17 340 (С) 10 км    10/8 300 м кучево-дожд., средняя 
[Cb cap|As trans]
+6.5 +4.2 85 +7  1033.6  -0.6  764  300  +6.5        влажная 
06 26.09.17 330 (СЗ) 10 км  в посл. час ливневой дождь  10/8 300 м кучево-дожд., средняя 
[Cb cap|As op]
+7.2 +4.4 82 +7  1033.3  -0.2  764  299           
09 26.09.17 330 (СЗ) 10 км  {ливн. осадки}  8/6 300 м кучево-дожд., средняя 
[Cb cap|Ac cast]
+9.3 +3 65 +9  1032.6  -0.6  763  297           
12 26.09.17 360 (С) 10 км  {ливн. осадки}  6/4 600 м кучево-дожд., средняя 
[Cb cap|Ac lent]
+9.4 +2.4 62 +9  1033  0.4  764  297           
15 26.09.17 340 (С) 10 км  {ливн. осадки}  4/0 средняя 
[Ac lent]
+6.7 +2.6 75 +7  1034.1  764  300    +10.1  0.8     
18 26.09.17 010 (С) 10 км  {ливн. осадки}  3/0 средняя 
[Ac lent]
+5.9 +2.8 80 +6  1034.8  0.6  765  301           
21 26.09.17 350 (С) 10 км    9/9 300 м 
[Sc]
+5.6 +3 83 +5  1035  0.2  765  302           
00 27.09.17 020 (С) 10 км    9/9 300 м 
[Sc]
+6 +3 81 +6  1035.6  0.6  766  301           
03 27.09.17 360 (С) 10 км    9/9 600 м 
[Sc]
+5.4 +2.4 81 +5  1036.4  0.7  766  302  +5.4        влажная 
06 27.09.17 020 (С) 10 км    10/10 300 м 
[Sc]
+6.4 +3.2 80 +7  1037.4  1.1  767  301           
09 27.09.17 020 (С) 10 км    10/10 300 м 
[Sc]
+7.3 +3.1 75 +7  1038  0.7  767  301           
12 27.09.17 350 (С) 10 км    9/9 300 м 
[Sc]
+8 +3.2 72 +8  1038.3  0.3  768  300           
15 27.09.17 360 (С) 10 км    10/10 300 м 
[Sc]
+7.1 +1.7 68 +7  1039  0.6  768  301    +8       
18 27.09.17 320 (СЗ) 10 км    3/0 средняя 
[Ac lent]
+4.6 +1.1 78 +5  1039.5  0.3  768  304           
21 27.09.17 330 (СЗ) 10 км    8/8 600 м 
[Sc]
+4.3 +1.4 81 +5  1039.6  0.1  768  305           
00 28.09.17 360 (С) 10 км    10/10 600 м 
[Sc]
+4.2 +0.4 76 +4  1039.1  -0.5  768  305           
03 28.09.17 360 (С) 10 км    8/6 600 м средняя 
[Sc|Ac trans]
+3.2 +0.7 84 +4  1038.7  -0.4  768  306  +3.2        сухая 
06 28.09.17 360 (С) 10 км    9/9 600 м 
[Sc]
+5 +1.4 78 +5  1038.6  0.1  768  304  +3.2         
09 28.09.17 350 (С) 10 км    9/9 600 м кучево-дожд. 
[Cb cap]
+7.2 -0.8 57 +7  1037.5  -1  767  301           
12 28.09.17 310 (СЗ) 10 км    9/9 600 м кучево-дожд. 
[Cb cap]
+7 -1.2 56 +7  1036.4  -1.1  766  301           
15 28.09.17 320 (СЗ) 10 км    10/10 200 м кучево-дожд. 
[Cb cap]
+5.8 +0.6 69 +6  1035.6  -0.8  766  302    +8.2       
18 28.09.17 310 (СЗ) 10 км    9/9 600 м 
[Sc]
+5.3 +0.1 69 +6  1034.8  -0.9  765  302           
21 28.09.17 290 (З) 10 км    10/10 600 м 
[Sc]
+5 +1.1 76 +6  1033.5  -1.3  764  302           
00 29.09.17 290 (З) 10 км  слаб. морось  10/10 300 м 
[St]
+5.1 +2.3 82 +6  1031.5  -1.9  762  301           
03 29.09.17 300 (СЗ) 10 км  {морось}  10/10 300 м 
[Sc]
+5.6 +2.1 78 +5  1029.8  -1.7  761  300  +5        влажная 
06 29.09.17 290 (З) 10 км  {морось}  10/3 600 м средняя 
[Sc|Ac und]
+7.4 +1.6 67 +6  1027.9  -1.7  760  298           
09 29.09.17 310 (СЗ) 10 км    10/10 600 м 
[Sc]
+7.6 +1.9 67 +7  1026  -1.9  758  297           
12 29.09.17 280 (З) 10 км  слаб. дождь  10/10 600 м 
[Sc]
+7.1 +4.6 84 +7  1024.1  -1.8  757  297           
15 29.09.17 290 (З) 10 км  слаб. дождь  10/10 300 м 
[Frnb|Ns]
+6.2 +4.7 90 +7  1023.2  -0.9  756  297    +8.1     
18 29.09.17 310 (СЗ) 10 км  слаб. морось{дождь}  10/10 300 м 
[Frnb]
+6 +4.4 89 +7  1022.4  -0.9  756  297           
21 29.09.17 340 (С) 10 км  в посл. час морось  10/10 300 м 
[Sc]
+6 +4.9 93 +7  1021.7  -0.6  755  297           
00 30.09.17 350 (С) 10 км  {морось}  10/10 600 м 
[Sc]
+6 +4.9 93 +7  1021.6  0.1  755  297           
03 30.09.17 360 (С) 10 км  {дождь}  10/10 300 м 
[Frnb|Ns]
+6 +4.8 92 +7  1021.6  755  297  +5.9    0.3    влажная 
06 30.09.17 360 (С) 10 км  в посл. час дождь  10/10 300 м 
[Frnb|Ns]
+7.1 +5.5 90 +6  1021.7  0.2  755  296           
09 30.09.17 350 (С) 10 км  в посл. час дождь  10/8 300 м средняя 
[Sc|As op]
+7.4 +5.1 85 +8  1021.8  0.1  755  296           
12 30.09.17 340 (С) 10 км  {дождь}  10/8 600 м средняя 
[Sc diur, vesp|Ac und]
+8.3 +2.9 69 +9  1021.1  -0.6  755  295           
15 30.09.17 340 (С) 10 км    10/10 300 м 
[Sc]
+6 +3.1 82 +6  1021.3  0.1  755  297    +8.5  0.3     
18 30.09.17 360 (С) 10 км  слаб. дождь  10/10 600 м 
[Sc]
+5.5 +3.3 86 +5  1021.1  -0.2  755  298           
21 30.09.17 360 (С) 10 км  слаб. дождь  10/10 300 м 
[Frnb|Ns]
+4.2 +2.8 91 +4  1021.8  0.6  755  299           
00 01.10.17 360 (С) 10 км  {дождь}  10/10 600 м 
[Sc]
+3.7 +2.6 92 +2  1022.9  756  300           
03 01.10.17 040 (СВ) 10 км    10/10 300 м 
[St]
+5.4 +4.2 92 +6  1024  1.2  757  298  +3.6    0.8    влажная 
06 01.10.17 070 (В) 10 км    10/10 300 м 
[Sc]
+5.9 +3.8 86 +4  1026  758  299           
09 01.10.17 030 (СВ) 10 км  {морось}  10/10 300 м 
[Sc]
+5.8 +3.4 85 +5  1027.2  1.2  759  299           
12 01.10.17 040 (СВ) 10 км  {морось}  10/10 600 м 
[Sc]
+5.4 +2.6 82 +4  1028.2  760  300           
15 01.10.17 060 (СВ) 10 км    10/10 600 м 
[Sc]
+4.7 +2.1 83 +4  1029.1  0.9  761  301    +6.5       
18 01.10.17 360 (С) 10 км    9/0 средняя 
[Ac trans]
+3.5 +0.2 79 +3  1029.8  0.6  761  303           
21 01.10.17 360 (С) 10 км    8/0 средняя 
[Ac lent]
+2.9 -0.8 77 +4  1029.2  -0.6  761  303           
00 02.10.17 320 (СЗ) 10 км    9/0 средняя 
[Ac trans]
+0.8 -1.1 87 +1  1029.1  -0.2  761  306           
03 02.10.17 350 (С) 10 км    8/0 верхняя 
[Ci sp]
+0.1 -1.8 87 -1  1029.5  0.3  761  307  +0.1        влажная 
Время (UTC), дата Ветер
(°,м/с) 
Видим.   Явления Облачность Т
(°С)
Тd
(°С)
f(%) Тe
(°С)
Pmin
(гПа)
dP
(гПа)
Po
(мм)
O2
(г/м3)
Тmin Tmax R s Состояние
почвы